Ithaca, NY
on Thursday, December 7, 2017

Thursday
       
Previous Day Next Day
Daily Summary
 ActualAverageRecord
Temperature
Mean Temperature °F °C °F °C  
Max Temperature 35°F 2°C 40°F 4°C 64°F 17°C (1998)
Min Temperature 26°F -3°C 24°F -4°C -2°F -18°C (1969)
Degree Days
Heating Degree Days 34    
Moisture
Dew Point 22°F -6°C   
Average Humidity 72    
Maximum Humidity 96    
Minimum Humidity 35    
Precipitation
Precipitation 0.00 in / 0.00 cm in / cm in / cm ()
Wind
Wind Speed 8 mph / 13 km/h   
Max Wind Speed 16 mph / 26 km/h   
Max Gust Speed 29 mph / 47 km/h   
Visibility 8 miles / 13 kilometers   
Events Fog , Rain , Snow   
Averages and records for this station are not official NWS values.
Key: T is trace of precipitation, MM is missing value
Source: NWS Daily Summary
Seasonal Weather Averages
Time(EST)TemperatureDew PointHumidity Pressure Visibility Wind DirectionWind SpeedGust SpeedPrecipitationEvents Conditions
12:56 AM 35.1°F 1.7°C 21.0°F -6.1°C 57% 29.91 in / 1012.6 hPa 10.0 miles / 16.1 kilometers WSW 10.4 mph / 16.7 km/h - N/A   Overcast
1:56 AM 35.1°F 1.7°C 19.9°F -6.7°C 54% 29.93 in / 1013.3 hPa 10.0 miles / 16.1 kilometers West 12.7 mph / 20.4 km/h 17.3 mph / 27.8 km/h 0.00 in / 0.0 cm Rain Light Rain
2:56 AM 34.0°F 1.1°C 23.0°F -5.0°C 64% 29.94 in / 1013.6 hPa 10.0 miles / 16.1 kilometers West 10.4 mph / 16.7 km/h - 0.00 in / 0.0 cm   Overcast
3:56 AM 32.0°F 0.0°C 27.0°F -2.8°C 82% 29.93 in / 1013.4 hPa 10.0 miles / 16.1 kilometers NNW 3.5 mph / 5.6 km/h - 0.00 in / 0.0 cm   Overcast
4:56 AM 32.0°F 0.0°C 27.0°F -2.8°C 82% 29.93 in / 1013.5 hPa 10.0 miles / 16.1 kilometers West 4.6 mph / 7.4 km/h - 0.00 in / 0.0 cm   Overcast
5:56 AM 32.0°F 0.0°C 18.0°F -7.8°C 56% 29.94 in / 1013.7 hPa 10.0 miles / 16.1 kilometers West 10.4 mph / 16.7 km/h - N/A   Overcast
6:44 AM 32.0°F 0.0°C 21.2°F -6.0°C 64% 29.92 in / 1013.1 hPa 10.0 miles / 16.1 kilometers West 6.9 mph / 11.1 km/h - N/A   Overcast
6:56 AM 32.0°F 0.0°C 21.9°F -5.6°C 66% 29.95 in / 1014.2 hPa 10.0 miles / 16.1 kilometers West 5.8 mph / 9.3 km/h - N/A   Mostly Cloudy
7:56 AM 30.9°F -0.6°C 19.0°F -7.2°C 61% 29.96 in / 1014.4 hPa 10.0 miles / 16.1 kilometers SW 6.9 mph / 11.1 km/h - N/A   Mostly Cloudy
8:56 AM 30.9°F -0.6°C 19.0°F -7.2°C 61% 29.97 in / 1014.7 hPa 10.0 miles / 16.1 kilometers SW 4.6 mph / 7.4 km/h - N/A   Overcast
9:56 AM 30.9°F -0.6°C 18.0°F -7.8°C 59% 29.97 in / 1014.9 hPa 10.0 miles / 16.1 kilometers SW 15.0 mph / 24.1 km/h 19.6 mph / 31.5 km/h N/A   Overcast
10:13 AM 30.2°F -1.0°C 19.4°F -7.0°C 64% 29.95 in / 1014.1 hPa 10.0 miles / 16.1 kilometers WSW 9.2 mph / 14.8 km/h 17.3 mph / 27.8 km/h N/A   Overcast
10:56 AM 30.9°F -0.6°C 19.9°F -6.7°C 64% 29.97 in / 1014.9 hPa 10.0 miles / 16.1 kilometers WSW 10.4 mph / 16.7 km/h - N/A   Mostly Cloudy
11:56 AM 32.0°F 0.0°C 19.0°F -7.2°C 59% 29.95 in / 1014.2 hPa 10.0 miles / 16.1 kilometers WSW 10.4 mph / 16.7 km/h 16.1 mph / 25.9 km/h N/A   Mostly Cloudy
12:56 PM 33.1°F 0.6°C 17.1°F -8.3°C 52% 29.92 in / 1013.1 hPa 10.0 miles / 16.1 kilometers SSW 9.2 mph / 14.8 km/h - N/A   Overcast
1:56 PM 34.0°F 1.1°C 17.1°F -8.3°C 50% 29.90 in / 1012.4 hPa 10.0 miles / 16.1 kilometers SW 12.7 mph / 20.4 km/h 17.3 mph / 27.8 km/h N/A   Overcast
2:56 PM 35.1°F 1.7°C 16.0°F -8.9°C 46% 29.88 in / 1011.8 hPa 10.0 miles / 16.1 kilometers SW 8.1 mph / 13.0 km/h - N/A   Mostly Cloudy
3:56 PM 35.1°F 1.7°C 10.0°F -12.2°C 35% 29.89 in / 1012.2 hPa 10.0 miles / 16.1 kilometers WSW 16.1 mph / 25.9 km/h 28.8 mph / 46.3 km/h N/A   Mostly Cloudy
4:56 PM 33.1°F 0.6°C 15.1°F -9.4°C 48% 29.91 in / 1012.8 hPa 10.0 miles / 16.1 kilometers WSW 13.8 mph / 22.2 km/h 18.4 mph / 29.6 km/h N/A   Mostly Cloudy
5:56 PM 30.0°F -1.1°C 19.9°F -6.7°C 66% 29.93 in / 1013.5 hPa 10.0 miles / 16.1 kilometers WSW 6.9 mph / 11.1 km/h - N/A   Clear
6:56 PM 28.0°F -2.2°C 25.0°F -3.9°C 88% 29.96 in / 1014.4 hPa 10.0 miles / 16.1 kilometers NNW 8.1 mph / 13.0 km/h - N/A   Overcast
7:56 PM 28.0°F -2.2°C 24.1°F -4.4°C 85% 29.97 in / 1014.9 hPa 10.0 miles / 16.1 kilometers Calm Calm - 0.00 in / 0.0 cm   Mostly Cloudy
8:56 PM 28.0°F -2.2°C 24.1°F -4.4°C 85% 29.98 in / 1015.2 hPa 10.0 miles / 16.1 kilometers Calm Calm - N/A   Overcast
9:56 PM 27.0°F -2.8°C 25.0°F -3.9°C 92% 29.99 in / 1015.6 hPa 5.0 miles / 8.0 kilometers NW 9.2 mph / 14.8 km/h - 0.00 in / 0.0 cm Snow Light Snow
10:12 PM 26.6°F -3.0°C 24.8°F -4.0°C 93% 29.96 in / 1014.4 hPa 1.8 miles / 2.8 kilometers NW 10.4 mph / 16.7 km/h - 0.00 in / 0.0 cm Snow Light Snow
10:16 PM 26.6°F -3.0°C 24.8°F -4.0°C 93% 29.96 in / 1014.4 hPa 0.8 miles / 1.2 kilometers NW 9.2 mph / 14.8 km/h - 0.00 in / 0.0 cm Snow Light Snow
10:25 PM 26.6°F -3.0°C 24.8°F -4.0°C 93% 29.96 in / 1014.4 hPa 0.5 miles / 0.8 kilometers NW 6.9 mph / 11.1 km/h - 0.00 in / 0.0 cm Fog , Snow Snow
10:35 PM 26.6°F -3.0°C 24.8°F -4.0°C 93% 29.96 in / 1014.4 hPa 0.8 miles / 1.2 kilometers NNW 3.5 mph / 5.6 km/h - 0.00 in / 0.0 cm Snow Light Snow
10:41 PM 26.6°F -3.0°C 24.8°F -4.0°C 93% 29.96 in / 1014.4 hPa 1.2 miles / 2.0 kilometers NNW 3.5 mph / 5.6 km/h - 0.00 in / 0.0 cm Snow Light Snow
10:49 PM 26.6°F -3.0°C 24.8°F -4.0°C 93% 29.97 in / 1014.8 hPa 3.0 miles / 4.8 kilometers Calm Calm - 0.00 in / 0.0 cm Snow Light Snow
10:56 PM 26.1°F -3.3°C 25.0°F -3.9°C 96% 30.01 in / 1016.1 hPa 4.0 miles / 6.4 kilometers NW 3.5 mph / 5.6 km/h - 0.00 in / 0.0 cm Snow Light Snow
11:28 PM 26.6°F -3.0°C 24.8°F -4.0°C 93% 29.96 in / 1014.4 hPa 7.0 miles / 11.3 kilometers WNW 4.6 mph / 7.4 km/h - 0.00 in / 0.0 cm Snow Light Snow
11:56 PM 26.1°F -3.3°C 25.0°F -3.9°C 96% 30.01 in / 1016.0 hPa 9.0 miles / 14.5 kilometers WSW 4.6 mph / 7.4 km/h - 0.00 in / 0.0 cm Snow Light Snow